Regional Weather Roundup
Issued by NWS

Home | Current Version | Previous Version | Graphics & Text | Print | Product List | Glossary On
Versions: 1 2 3 4 5 6 7 8 9 10 11 12 13 14 15 16 17 18 19 20 21 22 23 24 25 26 27 28 29 30 31 32 33 34 35 36 37 38 39 40 41 42 43 44 45 46 47 48 49 50
000
ASUS43 KDMX 021907
RWRIA

WEATHER ROUNDUP FOR IOWA
NATIONAL WEATHER SERVICE DES MOINES IA
200 PM CDT TUE SEP 02 2014

NOTE: "FAIR" INDICATES FEW OR NO CLOUDS BELOW 12,000 FEET WITH NO
SIGNIFICANT WEATHER AND/OR OBSTRUCTIONS TO VISIBILITY.

* - THESE STATIONS ARE NOT NWS STATIONS...THUS NOT UNDER NWS
QUALITY CONTROL.  THEY ALSO DO NOT REPORT WEATHER SUCH
AS PRECIPITATION OR FOG.

IAZ001>003-012>014-020>022-031>034-043>046-022000-
   NORTHWEST IOWA

CITY           SKY/WX    TMP DP  RH WIND       PRES   REMARKS
CARROLL *      SUNNY     75  59  57 SW9       29.99R
CHEROKEE *     SUNNY     73  61  64 SW10      29.97S
DENISON *      SUNNY     73  59  60 W6        29.97S
LE MARS *      SUNNY     75  59  57 VRB7G14   29.97S
ORANGE CITY *  SUNNY     75  57  53 SW9       29.97S
SHELDON *      SUNNY     73  61  64 W10       29.95F
SIOUX CITY     SUNNY     76  58  53 VRB6      29.97S
SPENCER        SUNNY     75  57  53 SW12      29.96S
STORM LAKE *   SUNNY     73  64  73 W9        29.98S
$$

IAZ055>058-069>071-079>083-090>094-022000-
   SOUTHWEST IOWA

CITY           SKY/WX    TMP DP  RH WIND       PRES   REMARKS
ATLANTIC *     SUNNY     75  59  57 VRB5      29.99S
AUDUBON *      SUNNY     77  64  65 SW6       30.01R
CLARINDA *     SUNNY     79  61  53 W8        30.02R HX  80
COUNCIL BLFS * SUNNY     77  61  57 W6        30.00R
CRESTON *      SUNNY     75  61  60 W10       30.01S
HARLAN  *      SUNNY     73  59  60 VRB6G13   30.03S
LAMONI         SUNNY     78  62  57 NW14      29.99F HX  80
RED OAK *      SUNNY     77  61  57 SW7       30.01R
SHENANDOAH *   SUNNY     79  61  53 VRB7G14   30.01S HX  80
$$

IAZ047>049-059>061-072>074-084-022000-
   CENTRAL IOWA

CITY           SKY/WX    TMP DP  RH WIND       PRES   REMARKS
AMES           SUNNY     76  55  48 W3        29.97R
ANKENY *       SUNNY     77  55  47 VRB6      29.98R
CHARITON *     SUNNY     77  61  57 NW13      29.99S
DES MOINES     MOSUNNY   79  58  48 VRB3      29.98R HX  80
GRINNELL*      SUNNY     75  59  57 W5        29.98R
KNOXVILLE *    SUNNY     75  59  57 W10       29.97R
MARSHALLTOWN   SUNNY     76  56  49 W7        29.96R
PELLA *        SUNNY     77  61  57 W7        29.99R
PERRY *          N/A     75  57  53 W3        29.99R
$$

IAZ004>006-015-016-023>025-035-036-022000-
   NORTH CENTRAL IOWA

CITY           SKY/WX    TMP DP  RH WIND       PRES   REMARKS
ALGONA *       SUNNY     75  59  57 W10G17    29.96S
CLARION *      SUNNY     75  57  53 W7G15     29.96S
ESTHERVILLE    MOSUNNY   73  57  57 W10       29.95S
FORT DODGE *   SUNNY     75  57  53 SW10      29.98R
MASON CITY     SUNNY     76  56  49 SW17      29.96S
FOREST CITY *  SUNNY     73  59  60 W8        29.95S
IOWA FALLS *     N/A     73  55  53 W3        29.97S
$$

IAZ007>011-017>019-026>030-037>042-050>054-066-022000-
   NORTHEAST IOWA

CITY           SKY/WX    TMP DP  RH WIND       PRES   REMARKS
CEDAR RAPIDS   MOSUNNY   77  61  57 W9        29.94R
CHARLES CITY * MOSUNNY   75  59  57 SW12      29.95S
CLINTON *      MOSUNNY   79  63  57 W10       29.96S HX  80
DECORAH *      MOSUNNY   75  55  50 W10       29.93R
DUBUQUE        SUNNY     75  60  59 W9        29.94R
MONTICELLO *   SUNNY     77  61  57 W8G16     29.94R
OELWEIN *      MOSUNNY   75  61  60 W12       29.96R
WATERLOO       MOSUNNY   76  57  51 SW12      29.94S
$$

IAZ064-065-067-068-078-022000-
   EAST CENTRAL IOWA

CITY           SKY/WX    TMP DP  RH WIND       PRES   REMARKS
DAVENPORT      MOSUNNY   77  63  61 SW7       29.95R
IOWA CITY      SUNNY     78  62  57 W14G20    29.95S HX  80
MT. PLEASANT * MOSUNNY   81  61  50 SW8       29.97R HX  81
MUSCATINE *    PTSUNNY   81  63  54 W12G18    29.95R HX  82
QUAD CITIES    MOSUNNY   81  62  52 W12       29.94S HX  82
$$

IAZ062-063-075>077-085>089-095>099-022000-
   SOUTHEAST IOWA

CITY           SKY/WX    TMP DP  RH WIND       PRES   REMARKS
BURLINGTON     MOSUNNY   81  64  56 W8        29.96R HX  82
FAIRFIELD *    MOSUNNY   79  63  57 W7G14     29.97R HX  80
FORT MADISON * MOSUNNY   82  63  51 W9        29.97S HX  83
KEOKUK *       MOSUNNY   79  66  65 NW8       29.96S HX  81
OSKALOOSA *      N/A     77  61  57 W10       29.98R
CENTERVILLE *  SUNNY     79  63  57 W8        30.00S HX  80
OTTUMWA        MOSUNNY   78  63  59 W6        29.96R HX  80
WASHINGTON *   MOSUNNY   79  64  61 W10       29.96R HX  81
$$

ABBREVIATIONS USED IN REMARKS
   TC - TEMPERATURES IN CELSIUS
  WCI - WIND CHILL INDEX
   HX - HEAT INDEX
  VSB - VISIBILITY
$$




USA.gov is the U.S. government's official web portal to all federal, state and local government web resources and services.